User: anonymous   Login
Location: Unspecified
(0.0000°N, 0.0000°E)
Time: 15:49:29
(UTC+01:00)
Language:

ISS - Orbit

View from above orbital plane
View from above orbital plane
View from above satellite
View from above satellite

Ground track
Ground track

The orbit data is extracted from the following two-line orbital elements,

1 25544U 98067A   17055.63318249  .00016717  00000-0  10270-3 0  9034
2 25544  51.6382 239.3785 0006677 228.8416 131.2161 15.54448912  4249
Epoch (UTC): 24 February 2017 15:11:46
Eccentricity: 0.0006677
inclination: 51.6382°
perigee height: 399 km
apogee height: 408 km
right ascension of ascending node: 239.3785°
argument of perigee: 228.8416°
revolutions per day: 15.54448912
mean anomaly at epoch: 131.2161°
orbit number at epoch: 424

The dashed part of the orbit path shows where the satellite is in the earth's shadow,  

DLR